sat.trackr.live / text

‹ back to catalog

NORBI

NORAD 46494 · 2020-068J

PAYLOAD ACTIVE UNKNOWN

§ Identity

Operator
Country
CIS
Launch date
2020-09-28
Launch site
PLMSC
Launch vehicle
Mass (kg)
RCS (m²)

External: N2YO · Heavens-Above · Gunter

§ Orbital elements

Epoch: 2026-09-10T04:02:54.625920Z

Period
92.79 min
Inclination
97.8592°
Eccentricity
0.0003737
Mean motion
15.51931882 rev/d
Perigee alt
408.5 km
Apogee alt
413.6 km
Semi-major
6,789.2 km
B*
3.6041e-4
RAAN
276.8476°
Arg perigee
315.6270°
Mean anomaly
44.4681°
Rev number
32,937

§ Raw data

NORBI1 46494U 20068J   26253.16868780  .00021556  00000+0  36041-3 0  99902 46494  97.8592 276.8476 0003737 315.6270  44.4681 15.51931882329377

JSON: /api/v1/satellites/46494 · /tle

For live sub-satellite position, see the globe view (requires WebGL).

§ Visibility from observer

Set your observer location to see the next 7 days of passes ≥ 10°. The values pass through the URL so the page stays shareable.

No JS? Fill the form by hand. The geolocation button needs JavaScript.

§ Radio — SatNOGS DB

ModeDescriptionDownlinkUplink
GFSK Mode U - GFSK9k6 436.700 MHz
LoRa Mode U - LoRa 436.703 MHz

2 transmitters · refreshed weekly from db.satnogs.org